PWLH4136E Weather Reports


Display with metric or nautical units.
time (UTC)temp
F
wind
direction
speed
MPH
gust
MPH
rain 1hr
in
rain 24hr
in
rain mn
in
humidity
%
barometer
mb
20260507184539 61 188 1.0 4.0 0.00 0.06 0.00 80 1012.3
20260507183045 62 162 1.0 4.0 0.00 0.06 0.00 79 1012.2
20260507181538 62 191 0.0 4.0 0.00 0.06 0.00 79 1012.1
20260507180138 62 159 2.0 4.0 0.00 0.06 0.00 77 1012.1
20260507174544 63 97 1.0 4.0 0.00 0.06 0.00 77 1012.0
20260507173053 62 123 0.0 4.0 0.00 0.06 0.00 77 1012.1
20260507171544 63 77 1.0 4.0 0.00 0.06 0.00 76 1012.1
20260507170035 63 166 1.0 4.0 0.00 0.06 0.00 75 1012.1
20260507164541 63 141 3.0 6.0 0.00 0.06 0.00 75 1012.3
20260507163033 64 141 1.0 5.0 0.00 0.06 0.00 74 1012.3
20260507161547 64 159 3.0 6.0 0.00 0.06 0.00 72 1012.4
20260507160039 64 172 3.0 6.0 0.00 0.06 0.00 72 1012.2
20260507154531 64 169 4.0 9.0 0.00 0.06 0.00 71 1012.3
20260507153032 64 165 5.0 10.0 0.00 0.06 0.00 69 1012.3
20260507151531 66 174 3.0 8.0 0.00 0.06 0.00 65 1012.3
20260507150130 66 110 0.0 8.0 0.00 0.06 0.00 67 1012.2
20260507144532 66 132 2.0 7.0 0.00 0.06 0.00 65 1012.3
20260507143026 66 104 2.0 6.0 0.00 0.06 0.00 66 1012.4
20260507141526 66 121 3.0 6.0 0.00 0.06 0.00 64 1012.4
20260507140023 65 118 3.0 7.0 0.00 0.06 0.00 65 1012.8
20260507134522 66 39 0.0 6.0 0.00 0.06 0.00 65 1012.9
20260507133018 65 184 3.0 9.0 0.00 0.06 0.00 65 1013.1
20260507131527 64 96 4.0 10.0 0.00 0.06 0.00 65 1013.4
20260507130023 64 226 3.0 11.0 0.00 0.06 0.00 67 1013.5
20260507124519 64 131 2.0 10.0 0.00 0.06 0.00 66 1013.5
20260507123016 65 139 3.0 9.0 0.00 0.06 0.00 64 1013.6
20260507121515 64 136 5.0 9.0 0.00 0.06 0.00 66 1013.7
20260507120034 64 294 1.0 11.0 0.00 0.06 0.00 68 1013.7
20260507114513 64 91 2.0 9.0 0.00 0.06 0.00 67 1013.5
20260507113033 64 166 2.0 8.0 0.00 0.06 0.00 66 1013.8
20260507111512 64 121 2.0 11.0 0.00 0.06 0.00 66 1013.9
20260507110012 64 23 2.0 8.0 0.00 0.06 0.00 65 1013.9
20260507104514 64 127 3.0 10.0 0.00 0.06 0.00 62 1013.9
20260507103009 64 34 4.0 9.0 0.00 0.06 0.00 64 1013.9
20260507101507 64 99 2.0 10.0 0.00 0.06 0.00 66 1014.1
20260507100005 63 54 2.0 13.0 0.00 0.06 0.00 65 1014.1
20260507094503 62 128 6.0 15.0 0.00 0.06 0.00 67 1014.1
20260507093002 63 125 4.0 12.0 0.00 0.06 0.00 69 1014.0
20260507091502 63 97 5.0 13.0 0.00 0.06 0.00 69 1013.9
20260507090059 62 141 7.0 14.0 0.00 0.06 0.00 69 1013.8
20260507084603 63 84 6.0 13.0 0.00 0.06 0.00 67 1013.6
20260507083058 63 96 3.0 8.0 0.00 0.06 0.00 68 1013.7
20260507081557 63 89 2.0 7.0 0.00 0.06 0.00 70 1013.9
20260507080054 63 51 1.0 6.0 0.00 0.06 0.00 73 1014.0
20260507074554 63 125 0.0 7.0 0.00 0.06 0.00 76 1014.1
20260507073123 62 146 0.0 4.0 0.00 0.06 0.00 76 1014.0
20260507071548 61 44 1.0 3.0 0.00 0.06 0.00 77 1013.8
20260507070045 60 19 2.0 5.0 0.00 0.06 0.00 80 1013.8
20260507064552 59 330 0.0 0.0 0.00 0.06 0.00 84 1013.7
20260507063046 57 330 0.0 0.0 0.00 0.06 0.00 86 1013.6
20260507061540 55 338 0.0 3.0 0.00 0.06 0.00 88 1013.6
20260507060035 54 332 0.0 4.0 0.00 0.06 0.00 89 1013.5
20260507054535 54 343 0.0 0.0 0.00 0.06 0.00 90 1013.4
20260507053036 53 36 0.0 0.0 0.00 0.06 0.00 92 1013.3
20260507051532 52 338 0.0 4.0 0.00 0.06 0.00 92 1013.2
20260507050032 0 0.0 0.0 0.00 0.06 0.00 1013.2
20260507044525 0 0.0 0.0 0.00 0.06 0.00 1013.1
20260507043021 0 0.0 0.0 0.00 0.06 0.00 1013.0
20260507041516 0 0.0 0.0 0.00 0.06 0.00 1013.1
20260507040011 0 0.0 0.0 0.00 0.06 0.00 1013.1
20260507034507 0 0.0 0.0 0.00 0.06 0.00 1013.1
20260507033003 0 0.0 0.0 0.00 0.06 0.00 1013.1
20260507031559 0 0.0 0.0 0.00 0.06 0.00 1013.0
20260507030058 0 0.0 0.0 0.00 0.06 0.00 1012.9
20260507024557 0 0.0 0.0 0.00 0.06 0.00 1012.9
20260507023046 0 0.0 0.0 0.00 0.06 0.00 1013.0
20260507021541 0 0.0 0.0 0.00 0.06 0.00 1013.1
20260507020038 0 0.0 0.0 0.00 0.06 0.00 1013.1
20260507014533 0 0.0 0.0 0.00 0.06 0.00 1013.1
20260507013028 0 0.0 0.0 0.00 0.06 0.00 1013.2
20260507011524 0 0.0 0.0 0.00 0.06 0.00 1013.2
20260507010030 0 0.0 0.0 0.00 0.06 0.00 1013.3
20260507004515 0 0.0 0.0 0.00 0.06 0.00 1013.5
20260507003010 0 0.0 0.0 0.00 0.06 0.00 1013.6
20260507001506 0 0.0 0.0 0.00 0.06 0.00 1013.7
20260507000002 0 0.0 0.0 0.00 0.06 0.00 1013.5
20260506234607 0 0.0 0.0 0.00 0.06 0.00 1013.6
20260506233056 0 0.0 0.0 0.00 0.06 0.00 1013.7
20260506231552 56 316 1.0 5.0 0.00 0.06 0.00 89 1013.8
20260506230047 57 338 0.0 4.0 0.00 0.06 0.00 90 1013.9
20260506224603 57 326 2.0 8.0 0.00 0.06 0.00 90 1014.0
20260506223046 57 6 3.0 6.0 0.00 0.06 0.00 91 1014.1
20260506221543 57 18 1.0 6.0 0.00 0.06 0.00 91 1013.9
20260506220048 57 25 1.0 6.0 0.00 0.06 0.00 92 1013.9
20260506214540 58 3 0.0 4.0 0.00 0.06 0.06 92 1013.8
20260506213040 58 328 0.0 5.0 0.00 0.06 0.06 92 1013.9
20260506211545 58 36 0.0 4.0 0.00 0.06 0.06 93 1013.9
20260506210037 58 332 0.0 6.0 0.00 0.06 0.06 92 1013.8
20260506204538 58 305 3.0 5.0 0.01 0.06 0.06 90 1013.7
20260506203033 59 330 1.0 5.0 0.02 0.06 0.06 90 1013.5
20260506201531 60 349 0.0 0.0 0.03 0.06 0.06 88 1013.3
20260506200030 60 349 0.0 1.0 0.05 0.06 0.06 88 1013.1
20260506194534 61 320 0.0 6.0 0.05 0.05 0.05 86 1012.9
20260506193024 61 158 2.0 4.0 0.03 0.03 0.03 83 1012.7
20260506191524 61 179 1.0 7.0 0.02 0.02 0.02 82 1012.4
20260506190023 62 191 1.0 9.0 0.01 0.01 0.01 81 1012.1